カタログに戻る

ONEWEB-0095

運用中通信PO
NORAD 45436·PAYLOAD·🇬🇧 United Kingdom

打ち上げ Mar 21, 2020 から Baikonur Cosmodrome

Loading…

次のパス (今後24時間)

TLE

最新Source: CelesTrak SupGP

元期: Sep 14, 2026, 22:42 UTC

1 45436C 20020N   26257.94598796 -.00002235  00000+0 -63150-2 0  2572
2 45436  87.8957   3.2244 0001482 125.1218 336.8801 13.11414838    12

AllMySatでONEWEB-0095をリアルタイム追跡

Download on the App Store